Flag for Germany Weather past 2 weeks in Neumarkt in der Oberpfalz, Bavaria, Germany

Now
81 °F

Passing clouds.


Feels Like: 80 °F
Forecast: 59 / 76 °F
Wind: 2 mph from North

Location: Hohenfels

Current Time: Jul 26, 2014 at 5:42:20 PM

Latest Report: Jul 26, 2014 at 4:58 PM


Visibility: N/A

Pressure: 29.84 "Hg

Humidity: 37%

Dew point: 52 °F

Location of Neumarkt in der OberpfalzLocation

Historic Weather in Neumarkt in der Oberpfalz — Graph

°F

Neumarkt in der Oberpfalz temperature yesterday

Maximum temperature yesterday: 75 °F (at 12:58 PM)
Minimum temperature yesterday: 54 °F (at 3:58 AM)
Average temperature yesterday: 65 °F

Past Weeks' High & Low Weather Summary

 TemperatureHumidityPressure
High90 °F (Jul 20, 3:58 PM)100% (Jul 12, 4:58 AM)30.18 "Hg (Jul 12, 4:58 AM)
Low52 °F (Jul 24, 4:58 AM)24% (Jul 20, 3:58 PM)29.78 "Hg (Jul 21, 12:58 AM)
Average67 °F73%29.97 "Hg
* Reported Jul 11 4:58 PM — Jul 26 4:58 PM, Neumarkt in der Oberpfalz, Weather by CustomWeather, © 2014

Note: Actual official high and low records may vary slightly from our data, if they occured in-between our weather recording intervals... More about our weather records

Advertising

Neumarkt in der Oberpfalz weather history for previous 24 hours

 ConditionsComfort  
Time TempWeatherWind HumidityBarometerVisibility
4:58 PM
Jul 26
81 °FPassing clouds.2 mph37%29.84 "HgN/A
3:58 PM81 °FSunny.6 mph37%29.84 "HgN/A
2:58 PM81 °FPassing clouds.8 mph37%29.86 "HgN/A
1:58 PM81 °FSunny.8 mph42%29.87 "HgN/A
12:58 PM79 °FSunny.9 mph45%29.88 "HgN/A
11:58 AM77 °FSunny.8 mph47%29.90 "HgN/A
10:58 AM73 °FPassing clouds.6 mph57%29.90 "HgN/A
9:58 AM72 °FSunny.3 mph65%29.91 "HgN/A
8:58 AM66 °FSunny.No wind78%29.91 "HgN/A
7:58 AM61 °FSunny.No wind88%29.91 "HgN/A
6:58 AM57 °FPassing clouds.No wind94%29.90 "HgN/A
5:58 AM54 °FFog.No wind94%29.90 "Hg6 mi
4:58 AM55 °FClear.2 mph94%29.90 "HgN/A
3:58 AM57 °FClear.No wind94%29.90 "HgN/A
2:58 AM57 °FClear.1 mph94%29.93 "HgN/A
1:58 AM57 °FPassing clouds.2 mph94%29.91 "HgN/A
12:58 AM57 °FClear.2 mph94%29.90 "HgN/A
11:58 PM
Jul 25
59 °FClear.1 mph88%29.90 "HgN/A
10:58 PM61 °FClear.5 mph88%29.90 "HgN/A
9:58 PM63 °FSunny.2 mph83%29.91 "HgN/A
8:58 PM66 °FSunny.2 mph78%29.89 "HgN/A
7:58 PM73 °FSunny.No wind69%29.88 "HgN/A
6:58 PM75 °FSunny.1 mph65%29.88 "HgN/A
5:58 PM73 °FOvercast.2 mph65%29.89 "HgN/A
Weather by CustomWeather, © 2014

See weather overviewHow to use our weather pages